Regional Weather Roundup
Issued by NWS

Home | Current Version | Previous Version | Graphics & Text | Print | Product List | Glossary On
Versions: 1 2 3 4 5 6 7 8 9 10 11 12 13 14 15 16 17 18 19 20 21 22 23 24 25 26 27 28 29 30 31 32 33 34 35 36 37 38 39 40 41 42 43 44 45 46 47 48 49 50
000
ASUS43 KLMK 210902
RWRKY
KENTUCKY REGIONAL WEATHER ROUNDUP
NATIONAL WEATHER SERVICE LOUISVILLE KY
500 AM EDT SAT APR 21 2018

NOTE "FAIR" INDICATES FEW OR NO CLOUDS BELOW 12,000 FEET
WITH NO SIGNIFICANT WEATHER AND/OR OBSTRUCTIONS TO VISIBILITY.

KYZ001>023-026-027-061>063-070>075-211000-
WESTERN AND SOUTH CENTRAL KENTUCKY

CITY           SKY/WX    TMP DP  RH WIND       PRES   REMARKS
PADUCAH        FAIR      45  32  60 E6        30.29S
HENDERSON      FAIR      45  31  58 E9        30.33F
OWENSBORO      FAIR      47  28  47 E7        30.34F
HOPKINSVILLE   FAIR      46  30  53 E6        30.30S
BOWLING GREEN  FAIR      41  31  67 CALM      30.33F
GLASGOW        NOT AVBL
$$

KYZ024-025-028>034-038-045-046-053-211000-
NORTH CENTRAL KENTUCKY

CITY           SKY/WX    TMP DP  RH WIND       PRES   REMARKS
LOUISVILLE/SDF FAIR      47  26  44 E6        30.37F
LOUISVILLE/LOU FAIR      45  27  49 NE7       30.38S
FORT KNOX      FAIR      46  25  44 E7        30.37S
$$

KYZ035>037-039>044-047>052-055>060-089>105-211000-
NORTHEAST KENTUCKY

CITY           SKY/WX    TMP DP  RH WIND       PRES   REMARKS
LEXINGTON      FAIR      42  25  50 E10       30.38F
COVINGTON      FAIR      40  26  57 E8        30.41S WCI  34
FRANKFORT      FAIR      44  24  45 NE5       30.37F
$$

KYZ054-064>069-076>088-106>120-211000-
SOUTHEAST KENTUCKY

CITY           SKY/WX    TMP DP  RH WIND       PRES   REMARKS
JACKSON        FAIR      44  23  43 VRB5      30.37R
LONDON         FAIR      40  25  55 N5        30.36R
SOMERSET       NOT AVBL
MIDDLESBORO    FAIR      33  32  94 CALM      30.37S
MONTICELLO     FAIR      33  29  85 VRB7      30.38  WCI  27
$$




USA.gov is the U.S. government's official web portal to all federal, state and local government web resources and services.